Regional Weather Roundup
Issued by NWS

Home | Current Version | Previous Version | Graphics & Text | Print | Product List | Glossary On
Versions: 1 2 3 4 5 6 7 8 9 10 11 12 13 14 15 16 17 18 19 20 21 22 23 24 25 26 27 28 29 30 31 32 33 34 35 36 37 38 39 40 41 42 43 44 45 46 47 48 49 50
000
ASUS45 KBOU 171607
RWRCO

WEATHER ROUNDUP FOR COLORADO
NATIONAL WEATHER SERVICE DENVER/BOULDER CO
1000 AM MDT FRI APR 17 2015

NOTE: "FAIR" INDICATES FEW OR NO CLOUDS BELOW 12000 FEET WITH NO
SIGNIFICANT WEATHER AND/OR OBSTRUCTIONS TO VISIBILITY.

COZ001>005-013-030-031-171700-
...NORTHWEST COLORADO...

CITY           SKY/WX    TMP DP  RH WIND       PRES   REMARKS
CRAIG          MOSUNNY   42  36  79 CALM      29.98F
HAYDEN         CLOUDY    37  34  87 CALM      29.99S
MEEKER         PTSUNNY   39  35  86 MISG      29.97F
MOUNT WERNER   NOT AVBL
STEAMBOAT SPGS PTSUNNY   40  32  73 SW8       29.96S
WALDEN         CLOUDY    32  28  86 N7        30.03S VSB 1/2 WCI  26
$$

COZ006>008-011-171700-
...WEST CENTRAL VALLEYS...

CITY           SKY/WX    TMP DP  RH WIND       PRES   REMARKS
GRAND JUNCTION LGT SNOW  34  34 100 SE10      30.03S FOG     WCI  26
MONTROSE       CLOUDY    36  29  75 E5        30.05R
EAGLE          CLOUDY    37  37 100 CALM      29.97R FOG
RIFLE          LGT SNOW  35  32  88 CALM      30.00R FOG
DELTA          LGT SNOW  35  34  96 N5        30.05F WCI  31
NUCLA          CLOUDY    32  30  93 CALM      30.10S FOG
$$

COZ017>023-064>068-171700-
...SOUTHWEST COLORADO...

CITY           SKY/WX    TMP DP  RH WIND       PRES   REMARKS
DURANGO        MOSUNNY   39  12  33 W10       30.03F
CORTEZ         PTSUNNY   37  23  56 W10       30.07S
PAGOSA SPRINGS MOSUNNY   34  10  36 CALM      30.03F
TELLURIDE      CLOUDY    27  16  65 SW3       30.02S
WOLF CREEK PAS MOSUNNY   14  10  85 SW16G22   30.01S WCI  -2
$$

COZ009-010-012-014-032>034-037-058>063-171700-
...CENTRAL COLORADO...

CITY           SKY/WX    TMP DP  RH WIND       PRES   REMARKS
ASPEN          SNOW      29  26  89 SE9       29.94F VSB 1/2 WCI  20
BUENA VISTA    HVY SNOW  26  24  92 SE21G98   29.99R VSB 1/4 WCI  12
COPPER MTN     SNOW      25  19  80 NE26G36   29.98R VSB 1/4 WCI   9
BERTHOUD PASS  HVY SNOW  19  12  73 MISG      30.04R VSB<1/4
COTTONWOOD PAS SNOW      27  23  86 CALM      29.96R VSB 1/4
GUNNISON       CLOUDY    27  21  80 CALM      30.03R VSB 1
KREMMLING      CLOUDY    37  30  75 NW12G24   29.96F
LEADVILLE      HVY SNOW  22  20  92 CALM      29.95R VSB<1/4
SALIDA         CLOUDY    29  27  92 MISG      30.08R VSB 1/4
SUNLIGHT       SNOW     N/A N/A N/A S5        30.02R VSB 1/2
WILKERSON PASS CLOUDY   N/A N/A N/A SE6       30.01R
$$

COZ069>075-171700-
...SAN LUIS VALLEY/SANGRE DE CRISTO MOUNTAINS...

CITY           SKY/WX    TMP DP  RH WIND       PRES   REMARKS
ALAMOSA        SUNNY     33  24  69 SW7       30.00S WCI  27
LA VETA PASS   SUNNY     25  14  63 MISG      29.99R
SAGUACHE       LGT SNOW  30  27  86 SE3       30.02S VSB 1
$$

COZ035-036-038>040-171700-
...NORTHERN COLORADO FRONT RANGE...

CITY           SKY/WX    TMP DP  RH WIND       PRES   REMARKS
DENVER INTL AP FOG       40  40 100 NE8       29.98F VSB 1/8
DMNS CITY PARK   N/A     38  38  99 N6G14     29.99F
AURORA         LGT RAIN  35  35 100 CALM      30.00S VSB 1/4
FRONT RANGE AP FOG       41  41 100 CALM      29.99S VSB 1/4
ERIE MUNI ARPT HVY RAIN  39  39  99 N16G22    30.00S
BOULDER MUN AP LGT RAIN  39  39 100 N13       30.00S
CENTENNIAL     LGT RAIN  35  35 100 W6        29.99S VSB 1/4 WCI  30
BROOMFIELD     RAIN      37  37 100 NW21      29.99F VSB 1/4
FORT COLLINS   CLOUDY    39  37  93 N14       30.04F
LONGMONT       LGT RAIN  42  40  93 N21G26    30.03S
$$

COZ041-046-047-076>085-087-088-171700-
...PIKES PEAK/PALMER DIVIDE AND SOUTHERN FOOTHILLS...

CITY           SKY/WX    TMP DP  RH WIND       PRES   REMARKS
COLO. SPRINGS  PTSUNNY   41  37  86 S14       29.98R
A. F. ACADEMY  CLOUDY    34  34  99 N1        29.98R
ELLICOTT       CLOUDY   N/A N/A N/A SW9       29.98R
FALCON         FOG       35  34  98 S9        30.00R VSB 1/2 WCI  28
FORT CARSON    NOT AVBL
LIMON          LGT RAIN  47  45  93 SE17      29.98R FOG
MONUMENT HILL  LGT SNOW  34  32  93 CALM      29.99R VSB 3/4
TRINIDAD       SUNNY     45  32  60 NE3       29.97S
$$

COZ042>045-048>051-090-091-171700-
...NORTHEAST COLORADO...

CITY           SKY/WX    TMP DP  RH WIND       PRES   REMARKS
GREELEY ARPT   CLOUDY    45  39  81 NE13      30.02S
AKRON          CLOUDY    48  48 100 SE20      29.99S
BURLINGTON     CLOUDY    51  48  89 E12       30.00R
WRAY           CLOUDY    52  52 100 E13       30.02S
STERLING       CLOUDY    50  50 100 SE14      30.00S
HOLYOKE        CLOUDY    54  52  94 E14       30.04S FOG
FORT MORGAN    CLOUDY    48  47  94 NE10      30.00S
$$

COZ086-089-092>099-171700-
...SOUTHEAST COLORADO...

CITY           SKY/WX    TMP DP  RH WIND       PRES   REMARKS
PUEBLO         PTSUNNY   44  38  79 W9        29.97S
LA JUNTA       PTSUNNY   49  42  77 SW6       29.99R
LAMAR          CLOUDY    53  51  93 S9        29.96S
SPRINGFIELD      N/A     55  46  71 S15       29.97F
$$


USA.gov is the U.S. government's official web portal to all federal, state and local government web resources and services.